Location: Newark
(54.3386°S, 169.8415°W)
Time: 08:37:35
(UTC+00:00)

Transit 2A Rocket - Pass Details

Date: 25 October 2019
Orbit: 594 x 909 km, 66.7° (Epoch: 17 November)

Event Time Altitude Azimuth Distance (km) Brightness Sun altitude
Rises 05:54:26 0° 274° (W) 3,351 9.9 2.5°
Reaches altitude 10° 05:57:05 10° 263° (W) 2,470 9.7 2.1°
Maximum altitude 06:02:12 32° 201° (SSW) 1,493 7.1 1.4°
Drops below altitude 10° 06:07:36 10° 139° (SE) 2,608 7.6 0.7°
Sets 06:10:29 0° 128° (SE) 3,566 8.1 0.3°
